Wetbulb
58.88 58.93 58.93 59.08 59.25 59.45 59.55 59.60 59.80 60.11 60.35 60.73 61.06 61.70 61.75 61.18 60.55 58.59 52.67 56.84 58.30 62.43 60.43 53.98 53.35 53.26 53.94 51.85 50.20 49.48 48.16 45.48 45.78 44.93 46.97 47.67 48.01 47.27 49.05 49.55 50.63 52.14 50.88 53.24 61.05
58.37 58.55 58.56 58.72 59.03 59.16 59.26 59.19 59.23 59.53 59.98 60.39 60.76 61.56 61.67 60.77 56.64 53.93 59.40 62.47 62.17 61.03 53.59 52.27 51.00 52.11 51.27 50.10 50.35 50.01 47.45 46.36 47.53 48.08 47.49 47.91 48.59 48.39 48.25 48.48 49.44 49.89 50.91 51.99 59.78
58.13 58.02 57.96 58.09 58.41 58.86 59.01 59.19 59.21 59.35 59.73 60.06 60.73 61.45 61.00 59.45 52.66 51.90 60.79 62.23 62.30 59.28 54.62 53.43 51.93 51.24 49.13 50.11 48.51 46.53 46.27 45.23 46.66 47.20 47.92 47.88 46.92 48.84 48.32 47.26 50.44 50.54 51.76 51.84 58.95
57.95 57.60 57.47 57.39 57.68 58.19 58.66 58.82 59.03 59.28 59.49 59.72 60.74 61.06 59.77 56.00 42.91 54.23 59.69 61.59 61.53 56.17 53.59 51.38 50.54 49.16 47.87 46.64 47.74 45.15 45.52 46.47 47.85 48.36 47.37 46.78 48.10 47.11 48.43 50.74 50.39 51.96 52.47 52.63 57.14
58.02 57.56 57.18 57.10 57.43 57.95 58.28 58.54 58.78 58.92 59.10 59.38 60.44 60.61 56.17 49.58 50.13 56.62 59.12 58.58 54.72 53.83 51.68 50.12 48.84 48.68 45.99 47.52 47.12 45.45 45.96 46.49 47.87 47.35 47.34 46.41 47.16 47.84 47.60 51.30 49.94 49.38 49.52 51.76 54.87
57.66 57.53 57.36 57.15 57.48 57.85 58.11 58.19 58.38 58.55 58.65 59.09 60.36 59.67 52.37 44.85 55.20 54.91 53.73 53.77 53.52 52.97 50.92 50.66 49.14 49.61 48.08 46.75 46.23 47.15 46.73 46.91 47.42 47.61 47.39 46.52 47.45 47.18 49.86 51.03 49.31 48.98 50.43 51.41 52.98
57.68 57.07 56.78 56.93 57.21 57.39 57.76 58.09 58.18 58.12 58.32 59.08 60.01 55.69 48.88 46.90 56.20 54.39 53.59 52.99 52.92 52.59 50.89 51.59 50.83 49.88 49.31 46.85 47.46 46.21 45.13 46.43 46.76 47.02 46.94 47.19 45.03 45.64 50.50 47.96 49.09 49.64 50.56 50.84 51.63
58.17 57.36 57.23 57.23 57.14 57.16 57.29 57.66 58.00 58.00 58.48 59.36 60.22 53.35 45.80 53.37 57.08 53.62 53.28 52.36 53.03 52.99 52.58 52.01 52.86 50.23 48.86 48.32 46.99 45.04 45.46 42.79 45.05 45.36 46.52 46.38 43.50 47.88 47.11 47.96 48.96 50.42 51.05 50.58 50.85
57.97 57.52 57.29 57.10 56.94 56.93 57.29 57.76 57.84 57.93 58.69 58.95 53.62 50.27 44.28 55.33 52.82 54.68 52.85 51.08 51.53 51.51 51.52 50.77 50.97 47.92 47.80 46.08 44.22 44.01 41.13 41.34 43.23 45.47 44.93 45.25 44.83 47.86 46.48 46.15 47.83 49.46 50.13 50.50 50.62
58.25 57.75 57.52 57.26 56.93 56.92 57.77 58.06 57.80 57.58 56.30 53.55 51.70 45.65 47.11 46.63 51.56 51.96 52.14 51.25 49.89 49.84 49.58 49.38 48.27 46.42 45.81 44.55 38.38 40.67 40.45 40.55 41.68 43.60 43.32 44.00 43.87 47.68 48.81 46.01 48.21 49.89 50.50 50.18 49.73
56.59 58.34 58.01 57.69 57.08 57.47 57.60 52.04 51.00 50.25 49.79 45.73 44.18 43.47 46.18 50.34 52.13 50.74 51.00 49.95 49.07 48.35 45.19 44.60 44.35 42.14 44.75 45.32 42.92 42.07 41.11 40.66 42.64 43.26 42.85 44.06 44.50 46.41 48.62 48.64 47.80 48.73 49.80 50.54 50.89
54.79 55.83 58.35 58.23 57.44 57.25 56.21 53.39 48.63 50.47 48.15 49.58 47.62 46.54 49.13 50.91 46.63 49.25 51.14 47.94 46.21 43.53 43.80 43.46 41.13 45.82 43.72 43.04 42.12 41.67 41.19 41.28 43.22 41.82 42.10 43.57 42.84 46.24 47.53 47.72 49.05 49.57 50.07 50.91 51.70
53.69 54.33 56.50 58.24 57.31 56.12 54.42 51.79 54.54 52.92 46.63 47.03 48.30 48.05 48.24 49.52 46.88 47.32 49.68 46.79 44.21 41.19 42.42 41.62 43.22 43.59 42.63 40.68 40.28 41.15 40.58 40.77 40.23 40.86 41.95 41.04 41.33 44.39 46.93 46.99 47.71 48.88 49.90 50.60 51.07
53.51 53.59 56.89 57.20 54.97 54.48 52.96 55.35 55.97 52.50 44.14 44.17 42.89 46.50 46.77 47.99 44.99 47.76 49.97 48.04 43.29 42.30 41.73 42.31 43.86 41.61 40.56 40.16 41.98 38.86 42.40 41.44 39.73 39.31 36.89 40.33 35.30 42.30 44.98 45.48 46.19 48.30 49.87 50.25 50.54
52.81 52.94 53.14 55.26 54.02 52.23 53.51 56.00 56.05 51.51 33.79 43.10 41.95 49.35 45.78 45.75 44.57 44.25 48.14 46.89 42.77 41.44 42.63 41.14 39.74 39.67 39.78 41.15 42.43 40.62 41.23 40.60 39.41 39.32 37.67 38.73 35.59 40.53 41.74 42.25 45.03 47.63 49.38 50.74 51.65
50.93 52.26 52.63 55.04 55.72 55.41 56.08 56.05 53.64 39.16 31.87 40.48 42.36 42.13 41.86 42.83 41.82 44.08 45.14 47.11 45.55 41.97 41.25 40.90 42.19 42.79 42.82 40.27 42.11 41.37 40.81 39.75 39.33 38.88 33.09 38.75 36.92 38.72 41.83 43.16 45.22 47.16 48.65 49.98 50.65
49.70 51.16 50.80 51.77 52.10 55.61 55.14 52.56 37.36 32.08 41.72 39.15 38.86 40.80 39.99 39.61 40.09 41.62 40.79 40.27 39.57 35.96 36.62 38.96 39.77 41.43 42.04 39.78 40.81 41.03 39.97 33.60 32.03 31.12 31.76 35.72 34.77 39.10 43.37 44.40 45.05 46.74 48.32 48.78 48.31
48.36 50.11 49.61 50.10 53.02 54.84 52.50 43.06 32.20 38.62 39.88 40.67 40.38 39.36 37.58 39.35 38.98 39.13 39.38 38.32 41.01 38.70 36.57 34.84 32.96 39.40 42.31 42.25 39.94 38.81 40.11 34.51 28.32 28.80 33.65 32.06 32.01 39.55 44.66 45.84 45.39 46.32 47.25 47.75 46.66
48.28 47.83 47.23 49.80 51.43 53.59 47.61 33.68 35.07 38.43 41.27 39.83 40.12 37.53 37.25 38.69 38.75 37.81 38.24 39.19 41.61 40.94 36.10 34.45 34.08 39.03 39.81 41.84 43.26 37.92 35.04 41.50 35.23 27.47 30.25 35.94 39.46 43.18 43.82 43.15 44.48 45.26 47.22 47.90 48.19
45.26 44.47 43.53 50.06 52.62 51.30 41.56 35.60 38.32 42.33 41.82 41.35 37.50 40.45 37.06 38.70 36.65 36.61 36.37 40.42 39.49 42.41 44.38 39.05 33.81 37.26 38.59 41.62 40.81 39.97 42.21 34.48 35.00 28.97 27.13 33.93 35.52 37.20 41.87 44.07 46.05 44.74 45.91 47.42 48.17
43.52 37.92 43.33 48.80 52.35 44.73 35.03 36.29 40.08 43.67 43.59 41.04 39.65 38.79 38.97 37.48 38.52 35.71 37.08 40.22 40.44 39.97 43.42 42.04 37.54 34.90 37.90 36.99 37.27 37.27 36.60 36.79 37.04 34.64 30.51 29.63 35.09 43.86 43.50 44.98 44.15 45.68 45.41 47.28 47.85
41.10 31.40 43.67 49.07 39.40 40.65 35.95 38.76 40.98 41.80 44.32 42.74 42.67 41.31 39.37 38.94 37.89 38.40 37.93 40.03 42.34 42.03 37.72 41.79 37.95 33.94 36.27 39.33 40.48 41.02 39.66 38.92 33.45 30.67 33.07 32.83 35.12 42.09 44.49 45.17 44.44 45.35 45.16 46.72 46.68
36.87 36.67 43.54 46.64 31.55 33.99 36.38 36.96 39.23 38.82 40.64 41.11 40.18 42.03 42.20 39.04 35.63 39.36 40.50 42.77 41.55 41.72 39.70 41.09 36.18 31.88 33.93 35.84 36.28 35.57 38.29 38.75 39.26 34.86 33.24 30.85 34.75 43.17 43.42 43.66 44.85 44.55 46.49 46.53 45.90
36.84 30.56 36.15 38.73 40.19 34.23 32.94 33.10 33.61 39.33 39.19 40.00 39.60 41.61 39.73 37.74 39.74 36.84 37.90 41.18 41.83 41.23 41.93 42.54 37.43 34.77 32.52 36.55 38.09 33.44 36.04 38.00 37.65 32.27 33.25 34.67 37.54 42.37 43.83 43.65 44.84 45.64 46.81 46.96 46.80
36.78 32.68 34.88 29.90 32.36 34.01 34.31 33.19 31.59 31.88 38.21 39.11 36.11 36.69 37.47 34.29 36.52 36.53 38.58 37.82 39.48 41.25 41.47 40.82 33.63 36.44 38.31 39.48 37.65 36.69 36.51 36.79 35.29 37.31 34.05 37.12 38.11 41.65 43.99 44.88 45.95 47.06 47.18 47.30 46.51
33.43 33.53 33.60 32.71 33.17 32.28 32.53 31.88 31.57 32.94 33.61 32.54 32.96 36.04 36.34 33.69 34.96 33.20 35.72 36.77 36.69 38.58 36.35 39.54 32.47 35.71 33.60 38.02 37.67 35.46 37.30 36.77 37.02 37.85 38.42 39.00 38.85 45.30 46.19 47.02 46.50 45.87 45.98 45.83 46.72
39.50 38.87 35.93 32.57 32.20 29.90 30.69 31.32 31.50 34.56 35.80 37.34 36.53 34.78 33.48 35.45 38.49 39.41 38.29 37.27 37.05 35.44 36.22 36.45 33.92 31.85 29.08 35.59 35.19 30.97 35.00 37.46 38.21 39.63 39.83 35.58 40.89 44.99 44.36 45.00 45.62 46.31 46.11 45.35 46.84
MSLP
1019.27 1019.18 1019.10 1019.13 1019.12 1018.77 1018.52 1018.35 1018.13 1018.14 1017.89 1017.51 1017.41 1017.42 1017.22 1016.99 1016.93 1016.83 1016.43 1016.51 1016.34 1016.25 1016.27 1016.15 1015.87 1015.95 1015.81 1015.78 1016.08 1015.84 1015.08 1014.80 1014.95 1015.61 1015.39 1016.39 1016.45 1017.02 1017.40 1017.36 1017.77 1017.92 1017.97 1018.63 1018.71
1019.28 1019.18 1019.12 1018.97 1019.01 1019.02 1018.80 1018.60 1018.18 1018.17 1017.89 1017.59 1017.48 1017.19 1016.94 1016.77 1016.66 1016.48 1016.96 1016.17 1016.39 1016.17 1016.01 1015.86 1015.65 1015.74 1015.69 1015.88 1016.08 1015.39 1015.27 1015.20 1015.64 1015.92 1015.95 1016.27 1016.36 1016.59 1017.04 1017.07 1017.26 1017.59 1018.33 1019.07 1019.41
1019.21 1019.27 1019.24 1019.25 1019.23 1019.13 1019.01 1018.56 1018.40 1018.42 1018.37 1017.85 1017.35 1017.02 1016.81 1016.60 1016.69 1016.61 1016.69 1016.30 1016.33 1016.04 1016.03 1015.88 1015.71 1015.59 1015.71 1015.97 1016.20 1015.97 1015.47 1015.99 1016.12 1016.65 1016.90 1016.65 1016.65 1016.64 1016.48 1016.41 1016.00 1016.30 1017.18 1018.53 1019.02
1019.13 1019.30 1019.37 1019.29 1019.32 1019.13 1018.94 1018.81 1018.93 1018.85 1018.13 1017.58 1017.31 1016.78 1016.68 1016.59 1017.14 1016.71 1016.66 1016.40 1016.41 1016.08 1015.99 1015.85 1015.76 1015.45 1015.58 1016.06 1016.27 1016.17 1016.32 1016.55 1016.74 1017.15 1017.41 1017.09 1016.75 1016.45 1016.12 1015.23 1015.96 1016.24 1016.63 1017.80 1018.35
1019.25 1019.36 1019.33 1019.32 1019.23 1019.04 1019.10 1019.06 1019.13 1018.53 1018.26 1017.56 1017.03 1016.86 1016.59 1016.60 1016.75 1016.77 1016.52 1016.56 1016.33 1016.06 1016.02 1015.79 1015.88 1015.60 1015.55 1016.25 1016.37 1016.43 1016.60 1016.90 1017.17 1017.46 1017.56 1017.59 1016.89 1016.28 1015.60 1015.49 1016.29 1016.70 1017.16 1017.26 1017.58
1019.15 1019.29 1019.31 1019.29 1019.38 1019.32 1019.25 1019.02 1018.74 1018.51 1018.03 1017.74 1017.45 1016.87 1016.44 1016.81 1016.81 1016.66 1016.61 1016.63 1016.24 1016.13 1016.30 1015.84 1016.02 1016.03 1016.01 1016.51 1016.67 1016.96 1016.98 1016.95 1017.21 1017.35 1017.58 1017.55 1016.90 1016.68 1015.01 1015.38 1015.87 1016.33 1016.38 1016.62 1016.93
1019.04 1019.22 1019.30 1019.30 1019.30 1019.27 1019.12 1018.97 1018.63 1018.49 1018.15 1017.74 1017.44 1017.10 1016.56 1016.72 1016.89 1016.67 1016.57 1016.53 1016.45 1016.25 1016.45 1016.36 1016.35 1016.25 1016.56 1016.79 1017.33 1017.34 1017.08 1016.95 1017.08 1017.38 1017.50 1017.62 1016.92 1015.55 1015.15 1015.79 1015.57 1015.57 1015.70 1016.02 1016.34
1019.08 1019.17 1019.23 1019.26 1019.18 1019.22 1019.10 1018.82 1018.61 1018.27 1017.97 1017.65 1017.54 1017.27 1016.92 1016.90 1016.95 1016.85 1016.57 1016.73 1016.54 1016.67 1016.69 1016.93 1016.44 1016.79 1017.06 1017.37 1017.38 1017.24 1017.09 1016.69 1016.99 1017.41 1017.64 1017.66 1015.47 1014.89 1015.39 1015.48 1015.02 1014.94 1014.90 1015.28 1015.53
1018.91 1019.05 1019.17 1019.22 1019.11 1019.06 1018.89 1018.59 1018.34 1018.06 1017.90 1017.63 1017.60 1017.20 1016.92 1016.97 1017.31 1017.10 1016.77 1016.69 1016.62 1017.02 1017.12 1017.08 1016.96 1017.40 1017.48 1017.05 1017.20 1017.14 1016.36 1016.73 1016.84 1017.31 1017.51 1017.28 1015.40 1014.85 1015.29 1015.24 1014.55 1014.24 1014.13 1014.37 1014.70
1018.73 1018.89 1019.07 1019.09 1019.04 1018.79 1018.51 1018.14 1018.12 1017.97 1017.86 1017.74 1017.63 1017.63 1017.27 1017.22 1017.31 1017.32 1017.08 1016.81 1016.74 1017.02 1017.17 1017.20 1017.35 1017.41 1017.40 1017.02 1016.38 1016.38 1016.57 1016.88 1016.82 1017.37 1017.57 1016.84 1015.43 1014.55 1014.47 1014.78 1014.04 1013.59 1013.38 1013.40 1013.54
1018.69 1018.68 1018.99 1019.16 1019.11 1018.71 1018.21 1018.19 1018.63 1018.44 1017.92 1017.51 1017.48 1017.26 1017.11 1017.52 1017.43 1017.45 1017.33 1017.04 1017.05 1017.11 1017.25 1017.85 1017.34 1016.81 1016.40 1017.03 1017.27 1016.98 1016.88 1016.68 1016.86 1017.53 1017.49 1016.28 1014.84 1014.09 1013.73 1013.50 1013.22 1012.91 1012.42 1012.18 1012.07
1018.77 1018.83 1018.86 1018.99 1019.10 1018.84 1018.33 1018.19 1018.78 1019.10 1018.22 1017.51 1017.48 1017.37 1017.22 1017.21 1017.33 1017.38 1017.31 1017.42 1017.34 1017.32 1017.69 1017.96 1017.13 1016.73 1017.37 1017.74 1017.74 1017.61 1017.33 1017.05 1017.15 1017.77 1017.77 1016.19 1014.26 1013.43 1013.03 1012.09 1011.80 1011.41 1010.96 1010.89 1010.87
1018.92 1018.87 1019.11 1018.80 1018.98 1019.05 1018.63 1018.82 1018.87 1018.87 1018.53 1017.54 1017.31 1017.06 1017.04 1017.19 1016.91 1016.98 1017.17 1017.39 1017.57 1017.84 1017.65 1016.98 1016.98 1017.31 1017.72 1018.09 1018.05 1017.75 1017.58 1017.45 1017.66 1017.99 1017.69 1016.62 1013.82 1012.01 1011.37 1011.25 1011.12 1010.42 1010.16 1010.00 1009.67
1019.18 1019.31 1018.61 1018.71 1019.44 1018.99 1018.86 1018.95 1018.81 1019.11 1018.50 1017.44 1017.36 1017.00 1017.10 1017.08 1017.22 1017.13 1016.87 1016.97 1017.84 1017.47 1017.97 1017.76 1017.66 1017.83 1018.03 1017.92 1017.90 1017.70 1017.52 1017.85 1018.11 1018.25 1017.33 1017.05 1013.24 1011.42 1010.61 1010.29 1010.04 1009.32 1008.96 1008.57 1008.72
1019.56 1019.42 1019.34 1018.90 1018.33 1018.68 1018.59 1018.59 1018.98 1019.13 1018.44 1017.17 1017.25 1017.22 1017.05 1016.98 1017.24 1017.39 1017.43 1017.00 1016.92 1017.28 1017.69 1017.00 1017.53 1017.98 1018.01 1017.68 1017.97 1017.92 1018.03 1018.29 1018.53 1018.26 1017.85 1016.44 1015.29 1010.72 1010.46 1009.16 1008.80 1008.09 1007.85 1007.84 1008.08
1020.32 1020.03 1019.63 1019.07 1019.02 1019.07 1018.98 1019.29 1019.31 1019.38 1017.70 1017.00 1017.06 1017.03 1017.19 1017.25 1017.41 1017.60 1017.40 1017.30 1017.44 1017.40 1017.51 1017.52 1017.99 1017.86 1017.73 1018.35 1018.42 1018.73 1018.76 1018.95 1019.06 1018.69 1017.18 1014.92 1014.34 1009.80 1009.08 1008.19 1008.01 1007.61 1007.46 1007.67 1008.04
1020.17 1020.01 1019.81 1019.55 1019.39 1018.96 1019.09 1019.32 1019.83 1018.77 1017.53 1016.99 1016.92 1017.11 1017.14 1017.30 1017.58 1017.49 1017.35 1017.13 1016.86 1017.34 1016.90 1017.62 1017.66 1017.83 1017.95 1018.31 1018.98 1018.59 1018.42 1018.57 1018.57 1018.24 1015.61 1015.05 1014.12 1009.15 1008.91 1008.20 1007.97 1007.79 1007.29 1007.89 1008.40
1019.82 1019.62 1019.61 1019.45 1019.24 1019.27 1019.59 1019.88 1018.93 1016.74 1016.62 1016.94 1016.80 1017.08 1017.16 1017.32 1017.54 1017.48 1017.26 1016.94 1016.77 1016.41 1016.27 1016.56 1016.84 1017.11 1017.07 1016.59 1017.22 1018.08 1017.38 1016.86 1016.35 1016.73 1015.39 1015.34 1012.25 1008.07 1008.57 1008.54 1008.06 1008.03 1007.68 1008.01 1008.56
1019.81 1020.05 1019.97 1019.42 1019.60 1019.74 1019.69 1019.00 1016.87 1016.19 1016.39 1016.56 1016.80 1016.80 1016.94 1017.20 1017.40 1017.50 1017.08 1016.15 1015.63 1015.78 1015.63 1015.80 1016.14 1016.42 1016.56 1016.33 1016.45 1017.61 1017.37 1016.30 1016.46 1017.25 1016.38 1013.20 1009.73 1008.15 1008.38 1007.97 1007.63 1007.52 1007.67 1007.55 1008.21
1020.27 1020.16 1019.76 1019.22 1019.33 1019.50 1019.35 1017.85 1016.73 1016.34 1016.36 1016.32 1016.04 1016.10 1016.13 1016.64 1017.36 1017.38 1016.81 1015.48 1015.32 1015.05 1015.01 1015.34 1015.87 1016.36 1016.77 1016.87 1016.84 1016.30 1016.09 1016.69 1016.71 1016.00 1014.68 1011.57 1010.09 1007.58 1007.36 1007.15 1006.80 1007.21 1007.42 1007.52 1007.65
1020.25 1020.03 1019.31 1019.24 1019.21 1019.42 1018.41 1017.34 1016.80 1016.59 1016.47 1016.28 1015.83 1015.87 1016.16 1016.47 1016.68 1016.76 1016.22 1015.44 1015.16 1015.24 1015.41 1015.43 1016.14 1016.95 1017.01 1016.22 1015.77 1016.60 1016.14 1015.89 1015.50 1014.99 1013.45 1011.65 1008.63 1007.08 1006.77 1006.81 1007.19 1007.30 1007.56 1007.57 1007.67
1020.15 1019.99 1019.38 1019.43 1019.29 1018.61 1017.80 1016.99 1016.87 1016.58 1016.53 1016.24 1016.13 1016.03 1016.17 1016.65 1016.61 1016.51 1016.05 1015.60 1015.38 1015.59 1015.84 1015.69 1016.07 1016.23 1015.94 1015.87 1015.70 1015.10 1014.18 1014.56 1014.45 1014.05 1013.65 1012.09 1008.43 1007.21 1007.37 1007.28 1007.51 1007.52 1007.65 1007.71 1008.17
1019.85 1019.75 1019.48 1019.27 1018.70 1018.05 1017.61 1017.04 1017.09 1016.69 1016.38 1016.38 1016.20 1016.30 1016.47 1016.67 1016.90 1016.61 1016.21 1015.91 1016.06 1015.91 1015.65 1016.16 1016.66 1016.68 1015.78 1016.31 1016.19 1015.25 1014.26 1013.95 1013.69 1014.05 1012.63 1011.57 1008.55 1007.27 1007.56 1007.49 1007.51 1007.70 1007.56 1007.75 1007.97
1019.72 1019.70 1019.69 1019.38 1018.29 1017.72 1017.42 1017.26 1017.11 1016.85 1016.73 1016.72 1016.47 1016.71 1016.89 1016.84 1017.26 1017.32 1017.12 1016.69 1016.84 1016.60 1016.50 1016.52 1016.58 1016.19 1014.54 1013.53 1013.97 1014.32 1013.59 1013.24 1013.14 1012.97 1011.18 1010.16 1008.08 1006.55 1006.83 1007.12 1007.02 1007.16 1007.06 1007.46 1007.65
1019.44 1018.84 1018.37 1018.54 1018.09 1017.94 1017.85 1017.10 1016.84 1016.80 1016.79 1016.86 1016.77 1016.75 1016.71 1016.87 1017.06 1017.27 1017.53 1017.91 1017.87 1017.92 1017.29 1017.37 1016.85 1016.50 1014.78 1014.10 1014.09 1013.62 1013.04 1012.90 1012.64 1010.91 1010.46 1008.14 1008.24 1005.55 1005.93 1006.57 1006.58 1006.72 1006.57 1006.71 1007.00
1018.37 1018.47 1018.64 1018.13 1017.64 1017.89 1017.71 1016.65 1016.67 1016.73 1016.87 1016.69 1016.70 1016.78 1017.19 1017.24 1017.06 1017.05 1017.70 1017.86 1017.68 1017.78 1018.14 1017.76 1017.23 1016.91 1015.49 1014.46 1014.39 1013.75 1013.34 1012.51 1011.13 1010.05 1009.81 1008.31 1007.03 1005.26 1005.54 1005.77 1006.15 1006.24 1006.68 1006.58 1006.30
1017.78 1018.09 1017.96 1017.40 1017.56 1017.51 1016.69 1016.09 1016.68 1017.14 1017.12 1017.01 1017.00 1017.50 1017.35 1017.25 1017.99 1017.97 1018.49 1018.61 1018.64 1018.47 1017.92 1017.69 1017.07 1016.88 1015.46 1014.50 1014.15 1012.86 1011.55 1011.03 1010.86 1009.93 1008.72 1008.03 1005.61 1005.27 1005.41 1005.21 1005.51 1005.61 1006.13 1005.87 1005.70
Wind_Speed
2 3 3 3 3 4 5 5 5 5 5 6 7 8 8 8 2 3 3 1 1 2 2 1 3 2 1 4 2 1 4 6 4 6 3 8 9 3 1 3 4 5 2 4 12
2 3 3 4 4 5 5 6 7 7 7 8 9 8 9 5 2 2 2 1 2 3 3 5 4 3 3 3 2 3 4 5 0 3 3 8 9 8 6 7 6 5 6 4 11
4 2 3 3 4 5 6 8 8 9 9 9 10 10 9 1 2 1 3 2 1 1 2 2 4 2 3 1 1 3 5 2 3 1 3 6 6 6 8 9 11 13 11 11 15
4 2 1 1 3 4 6 7 7 9 11 12 12 12 6 2 4 1 4 2 2 2 3 4 2 4 3 4 2 3 1 2 4 2 2 4 3 6 11 9 2 7 5 15 18
3 3 1 2 3 5 5 6 8 9 11 13 13 14 1 2 2 2 3 2 1 2 3 4 3 4 4 4 4 2 4 3 2 3 3 1 7 8 12 13 4 3 8 14 16
4 3 3 2 3 4 6 6 8 10 11 13 13 14 1 4 1 2 3 0 3 2 2 2 3 2 6 3 2 2 2 1 2 3 2 4 4 3 5 7 11 9 11 12 16
6 6 5 5 4 5 6 7 8 10 11 12 12 5 0 2 1 1 0 1 1 1 3 2 4 1 4 6 2 2 2 3 5 2 2 2 8 16 9 2 9 13 12 12 14
7 7 6 5 4 6 7 7 8 9 10 10 8 2 2 0 1 1 1 3 4 5 4 2 5 7 3 6 3 1 1 4 3 3 2 5 12 4 2 8 14 14 12 12 15
7 7 7 5 4 6 8 8 8 8 8 6 2 2 1 1 2 2 2 4 4 3 6 4 4 4 3 4 3 1 4 6 3 4 1 8 8 2 1 5 12 13 14 14 14
6 6 7 6 4 6 10 5 2 3 1 1 0 2 2 2 1 2 3 2 4 4 3 4 4 3 3 7 7 6 6 4 6 3 4 9 17 17 11 8 12 12 13 13 16
12 4 8 7 5 5 4 2 2 2 1 2 1 1 2 1 1 2 1 3 2 3 6 2 6 9 14 9 1 3 2 5 3 1 4 12 19 18 17 16 18 18 19 18 20
14 13 6 7 5 4 3 3 2 2 4 1 3 3 2 3 3 2 3 4 2 6 6 5 10 12 6 7 5 5 8 12 7 2 5 12 23 19 19 22 19 21 21 21 21
13 14 12 9 6 2 1 3 1 2 3 4 3 4 3 7 6 9 11 6 4 5 11 12 4 6 8 7 9 9 12 9 9 1 7 11 17 15 10 15 17 21 22 23 24
11 11 6 10 4 2 2 1 2 2 5 5 5 3 3 5 5 2 6 4 4 12 7 8 3 5 8 9 12 14 12 8 6 5 7 2 11 18 17 17 15 18 17 20 20
12 12 12 7 3 2 2 3 2 2 6 5 3 2 1 6 4 1 1 0 11 9 8 6 10 12 11 8 13 2 5 6 2 5 5 9 8 8 4 13 16 20 19 19 17
7 10 13 2 0 1 4 6 2 2 9 3 3 4 5 1 2 2 3 3 2 6 2 1 2 5 4 3 4 12 7 5 3 1 10 9 11 9 11 8 5 6 9 10 9
6 8 5 2 3 1 1 2 2 5 1 4 3 3 2 6 4 3 8 11 10 8 15 5 8 3 3 7 4 4 9 4 5 6 12 4 7 14 7 11 10 12 17 5 2
7 7 3 2 2 3 2 2 8 6 9 1 3 4 4 7 2 4 6 9 11 2 3 12 11 13 10 15 9 12 11 8 8 6 8 2 13 8 10 10 14 14 18 11 9
5 1 2 2 4 2 5 6 9 9 4 7 4 3 4 3 2 5 8 9 10 16 13 8 8 1 3 4 13 8 12 9 7 1 4 10 20 21 15 17 16 18 14 14 10
1 0 3 1 5 3 5 11 12 3 5 3 12 9 8 8 8 9 10 5 7 16 14 3 8 1 3 3 1 10 7 6 5 7 11 14 16 17 5 11 10 7 10 11 11
1 1 1 3 4 3 10 7 7 5 4 7 8 7 6 6 10 6 4 3 5 4 15 8 4 3 4 11 14 7 12 5 3 6 7 9 12 10 14 9 7 7 6 7 7
2 2 1 4 6 5 12 10 11 11 8 10 5 7 8 5 8 7 11 7 5 9 11 8 1 8 13 0 5 10 19 22 9 8 6 8 17 3 5 3 6 8 6 4 5
4 2 1 2 9 10 7 14 10 6 10 7 12 11 6 12 7 12 11 4 7 8 10 9 5 4 6 4 2 9 12 12 21 1 13 13 14 2 6 11 2 6 4 5 5
3 4 2 2 3 10 12 14 14 7 12 6 5 6 7 7 7 3 6 3 3 4 8 3 7 11 16 11 3 9 17 19 18 9 20 19 27 28 16 9 10 11 8 6 7
4 5 4 8 11 11 11 7 17 12 9 11 11 17 12 6 10 9 11 2 5 12 5 2 6 17 25 23 11 8 11 22 23 28 23 29 27 36 24 20 21 20 22 16 15
5 5 2 1 6 15 13 14 17 11 10 14 15 9 5 18 20 19 17 13 8 5 4 6 4 4 20 24 19 22 16 14 25 28 24 31 29 34 27 21 19 17 14 15 16
3 1 3 7 7 11 17 21 11 12 7 11 9 4 10 13 3 5 4 8 6 3 2 3 6 4 14 17 14 18 25 25 23 23 24 24 32 24 24 21 19 18 16 20 21
Wind_Direction
129 101 84 75 65 40 46 44 36 15 360 352 341 325 324 333 119 187 148 63 247 271 154 149 117 109 126 93 74 151 223 235 222 193 195 152 194 150 82 191 204 196 269 66 145
114 92 61 40 27 20 32 16 14 357 345 338 326 321 329 334 195 100 333 278 239 294 175 177 146 143 92 90 74 213 232 228 143 232 238 178 204 171 191 191 220 218 189 148 168
133 103 79 62 27 17 12 8 2 346 334 331 325 325 331 155 190 126 328 298 186 70 98 99 117 116 107 124 99 138 246 151 175 239 278 195 215 178 210 211 217 216 191 176 183
159 159 133 43 2 11 6 6 353 338 341 337 327 331 339 184 220 91 319 282 228 133 129 126 153 134 131 171 106 210 143 176 127 176 212 218 160 205 218 224 104 217 182 174 190
189 185 211 336 343 350 352 350 341 343 337 336 333 331 267 144 152 358 322 291 186 131 120 141 172 147 151 144 132 205 158 175 128 170 238 195 236 244 239 232 187 145 183 197 201
212 234 248 259 310 326 331 337 339 335 336 332 330 324 185 192 67 327 299 225 66 96 112 103 158 125 106 116 199 75 181 171 185 184 228 256 259 245 238 234 216 214 215 210 212
222 239 249 262 283 308 319 324 330 327 325 323 334 336 181 97 283 293 58 85 16 86 117 68 126 33 143 126 93 90 239 274 217 166 229 259 244 239 242 184 229 227 230 225 220
219 228 243 250 274 291 299 306 311 316 317 321 323 297 120 258 300 45 121 79 72 43 78 66 98 96 13 119 87 165 224 234 126 180 133 209 262 254 230 232 244 239 236 233 229
211 225 230 241 267 290 291 291 295 298 303 319 293 322 137 46 174 327 344 135 97 71 57 72 58 69 141 168 181 203 239 224 271 185 205 222 274 270 191 228 258 252 249 242 244
227 229 240 234 249 298 295 280 284 285 275 288 105 256 147 163 19 351 4 76 108 119 104 54 70 162 148 197 233 203 216 220 250 130 221 240 253 266 254 243 258 265 262 248 245
40 286 234 237 254 307 321 150 243 178 160 277 323 28 96 88 189 71 342 102 89 91 177 45 205 213 226 222 241 120 210 249 230 137 262 254 266 266 271 268 259 258 256 253 249
29 6 305 205 212 276 295 60 68 33 302 196 242 260 240 203 124 203 168 168 175 178 138 164 226 232 106 167 188 214 253 256 279 193 234 278 277 275 264 259 255 258 255 251 252
27 5 308 173 179 275 79 92 335 277 269 277 222 222 192 176 212 191 175 148 146 158 199 216 181 159 176 176 200 224 235 247 266 328 234 291 269 260 256 257 261 257 255 258 253
31 353 3 161 184 210 100 55 88 317 262 230 220 239 146 165 235 349 187 148 179 200 180 245 180 170 182 211 202 241 212 235 255 283 272 276 289 280 275 263 246 257 248 250 248
7 1 345 313 94 16 9 44 4 257 255 104 162 74 112 199 122 41 9 291 181 169 175 199 180 195 214 219 190 236 131 179 176 242 305 204 256 257 264 268 255 249 253 255 257
3 355 338 356 125 118 169 156 153 111 220 190 129 153 153 132 63 98 147 57 65 136 250 304 10 193 199 95 182 139 96 77 85 248 262 238 233 257 251 246 276 259 259 261 267
356 352 351 297 147 231 161 149 108 211 20 169 166 172 190 171 161 170 172 184 181 183 221 178 213 173 175 116 91 213 170 203 221 198 250 79 239 248 263 259 242 274 288 295 243
338 344 332 277 360 359 113 121 203 207 206 108 118 110 198 159 195 158 159 207 228 193 141 209 230 184 181 215 177 197 201 210 228 212 262 110 240 258 234 277 284 273 267 276 262
350 7 296 220 196 215 170 213 217 225 172 180 142 182 195 193 230 186 217 236 213 199 208 191 242 186 220 174 181 175 216 253 269 106 292 249 263 271 238 256 239 256 266 276 265
111 347 249 43 171 167 193 227 222 205 134 180 213 205 231 200 195 199 187 217 224 202 216 217 257 172 145 160 188 215 149 187 213 226 234 251 260 257 280 294 271 252 267 283 266
78 265 251 198 162 202 219 220 250 205 218 225 218 241 223 191 205 189 245 246 213 182 204 219 246 133 166 205 179 182 214 219 242 220 244 259 253 259 255 262 281 303 305 305 310
135 219 6 192 172 199 218 208 230 217 212 239 254 249 226 212 213 225 229 230 158 145 168 206 263 252 232 100 255 240 226 209 213 207 248 272 264 152 257 247 305 321 297 285 311
173 263 71 264 199 206 211 228 239 209 207 196 223 221 224 244 256 234 244 213 186 180 174 175 176 239 256 207 203 229 213 223 228 53 222 227 254 105 263 266 301 283 293 275 278
144 194 224 250 229 227 207 222 220 210 233 222 251 218 210 224 242 286 320 353 318 247 8 352 181 223 238 246 115 208 224 213 205 221 235 236 250 259 238 259 259 263 261 261 262
185 216 197 195 216 210 209 221 216 217 214 207 238 231 224 242 213 222 225 247 310 314 358 297 236 235 248 257 255 248 220 214 215 226 223 247 240 258 257 256 260 278 285 285 269
183 184 181 212 207 198 210 222 221 207 210 218 240 210 196 240 246 268 275 255 227 214 219 205 244 273 253 256 250 255 257 238 220 230 239 246 253 251 261 262 263 261 265 271 270
140 173 227 186 178 185 214 224 214 207 225 236 223 175 229 247 273 272 275 280 282 313 278 225 181 207 261 259 255 242 237 242 245 239 236 238 244 264 266 260 261 265 254 253 260